Time,TemperatureF,DewpointF,PressureIn,WindDirection,WindDirectionDegrees,WindSpeedMPH,WindSpeedGustMPH,Humidity,HourlyPrecipIn,Conditions,Clouds,dailyrainin,SoftwareType,DateUTC
2013-06-08 00:13:00,61.6,60.0,29.81,NE,56,0.0,0.0,95,0.00,,,0.24,weatherlink.com 1.10,2013-06-08 04:13:00,
2013-06-08 00:28:00,61.5,60.0,29.81,NE,56,0.0,0.0,95,0.00,,,0.24,weatherlink.com 1.10,2013-06-08 04:28:00,
2013-06-08 00:45:00,61.3,60.0,29.81,NE,56,0.0,1.0,95,0.00,,,0.24,weatherlink.com 1.10,2013-06-08 04:45:00,
2013-06-08 00:58:00,61.1,60.0,29.82,East,90,0.0,3.0,95,0.00,,,0.24,weatherlink.com 1.10,2013-06-08 04:58:00,
2013-06-08 01:14:00,61.1,60.0,29.81,East,82,0.0,2.0,95,0.00,,,0.24,weatherlink.com 1.10,2013-06-08 05:14:00,
2013-06-08 01:29:00,61.2,60.0,29.81,East,82,0.0,1.0,95,0.00,,,0.24,weatherlink.com 1.10,2013-06-08 05:29:00,
2013-06-08 01:44:00,61.1,60.0,29.82,East,82,0.0,0.0,96,0.00,,,0.24,weatherlink.com 1.10,2013-06-08 05:44:00,
2013-06-08 01:59:00,61.1,60.0,29.82,East,82,0.0,0.0,96,0.00,,,0.24,weatherlink.com 1.10,2013-06-08 05:59:00,
2013-06-08 02:14:00,61.0,60.0,29.82,East,82,0.0,0.0,96,0.00,,,0.24,weatherlink.com 1.10,2013-06-08 06:14:00,
2013-06-08 02:29:00,61.0,60.0,29.82,East,82,0.0,1.0,96,0.00,,,0.24,weatherlink.com 1.10,2013-06-08 06:29:00,
2013-06-08 02:44:00,60.9,60.0,29.83,East,82,0.0,0.0,95,0.00,,,0.24,weatherlink.com 1.10,2013-06-08 06:44:00,
2013-06-08 02:59:00,60.9,60.0,29.83,East,82,0.0,0.0,96,0.00,,,0.24,weatherlink.com 1.10,2013-06-08 06:59:00,
2013-06-08 03:14:00,60.8,60.0,29.82,East,82,0.0,1.0,96,0.00,,,0.24,weatherlink.com 1.10,2013-06-08 07:14:00,
2013-06-08 03:29:00,60.7,60.0,29.82,East,82,0.0,3.0,96,0.00,,,0.24,weatherlink.com 1.10,2013-06-08 07:29:00,
2013-06-08 03:44:00,60.7,60.0,29.82,East,82,1.0,2.0,96,0.01,,,0.25,weatherlink.com 1.10,2013-06-08 07:44:00,
2013-06-08 03:59:00,60.7,60.0,29.82,East,88,0.0,3.0,96,0.01,,,0.25,weatherlink.com 1.10,2013-06-08 07:59:00,
2013-06-08 04:14:00,60.5,59.0,29.84,East,88,0.0,1.0,96,0.03,,,0.27,weatherlink.com 1.10,2013-06-08 08:14:00,
2013-06-08 04:31:00,60.3,59.0,29.84,East,88,0.0,1.0,96,0.06,,,0.03,weatherlink.com 1.10,2013-06-08 08:31:00,
2013-06-08 04:44:00,59.8,58.0,29.84,East,82,0.0,0.0,95,0.10,,,0.07,weatherlink.com 1.10,2013-06-08 08:44:00,
2013-06-08 04:59:00,59.3,58.0,29.86,East,82,0.0,0.0,95,0.13,,,0.10,weatherlink.com 1.10,2013-06-08 08:59:00,
2013-06-08 05:14:00,58.7,57.0,29.85,East,82,0.0,0.0,95,0.15,,,0.14,weatherlink.com 1.10,2013-06-08 09:14:00,
2013-06-08 05:29:00,58.2,57.0,29.84,East,82,0.0,1.0,95,0.15,,,0.18,weatherlink.com 1.10,2013-06-08 09:29:00,
2013-06-08 05:44:00,58.0,57.0,29.84,East,82,0.0,0.0,96,0.15,,,0.22,weatherlink.com 1.10,2013-06-08 09:44:00,
2013-06-08 05:59:00,57.8,57.0,29.86,East,82,0.0,1.0,96,0.14,,,0.24,weatherlink.com 1.10,2013-06-08 09:59:00,
2013-06-08 06:14:00,57.8,57.0,29.87,East,82,0.0,1.0,96,0.11,,,0.25,weatherlink.com 1.10,2013-06-08 10:14:00,
2013-06-08 06:29:00,57.8,57.0,29.88,East,82,0.0,0.0,96,0.07,,,0.25,weatherlink.com 1.10,2013-06-08 10:29:00,
2013-06-08 06:44:00,57.9,57.0,29.88,East,82,0.0,0.0,96,0.03,,,0.25,weatherlink.com 1.10,2013-06-08 10:44:00,
2013-06-08 06:59:00,58.0,57.0,29.89,East,82,0.0,0.0,97,0.01,,,0.25,weatherlink.com 1.10,2013-06-08 10:59:00,
2013-06-08 07:14:00,58.2,57.0,29.89,East,82,0.0,0.0,97,0.00,,,0.25,weatherlink.com 1.10,2013-06-08 11:14:00,
2013-06-08 07:29:00,58.6,58.0,29.89,East,82,0.0,0.0,97,0.00,,,0.25,weatherlink.com 1.10,2013-06-08 11:29:00,
2013-06-08 07:44:00,58.7,58.0,29.90,East,82,0.0,0.0,97,0.00,,,0.25,weatherlink.com 1.10,2013-06-08 11:44:00,
2013-06-08 07:59:00,60.0,59.0,29.90,East,82,0.0,0.0,97,0.00,,,0.25,weatherlink.com 1.10,2013-06-08 11:59:00,
2013-06-08 08:16:00,60.2,59.0,29.90,SW,232,2.0,2.0,97,0.00,,,0.25,weatherlink.com 1.10,2013-06-08 12:16:00,
2013-06-08 08:29:00,60.5,59.0,29.90,SW,234,0.0,2.0,96,0.00,,,0.25,weatherlink.com 1.10,2013-06-08 12:29:00,
2013-06-08 08:44:00,61.7,60.0,29.91,WSW,254,1.0,3.0,95,0.00,,,0.25,weatherlink.com 1.10,2013-06-08 12:44:00,
2013-06-08 08:59:00,63.7,62.0,29.92,East,98,0.0,2.0,93,0.00,,,0.25,weatherlink.com 1.10,2013-06-08 12:59:00,
2013-06-08 09:14:00,65.4,63.0,29.93,South,188,1.0,1.0,91,0.00,,,0.25,weatherlink.com 1.10,2013-06-08 13:14:00,
2013-06-08 09:29:00,66.6,63.0,29.93,SSW,199,0.0,3.0,87,0.00,,,0.25,weatherlink.com 1.10,2013-06-08 13:29:00,
2013-06-08 09:44:00,67.3,62.0,29.93,ENE,69,4.0,7.0,82,0.00,,,0.25,weatherlink.com 1.10,2013-06-08 13:44:00,
2013-06-08 09:59:00,67.7,61.0,29.94,ENE,65,0.0,4.0,79,0.00,,,0.25,weatherlink.com 1.10,2013-06-08 13:59:00,
2013-06-08 10:15:00,69.4,62.0,29.94,East,92,2.0,6.0,77,0.00,,,0.25,weatherlink.com 1.10,2013-06-08 14:15:00,
2013-06-08 10:30:00,70.5,63.0,29.94,East,100,0.0,5.0,77,0.00,,,0.25,weatherlink.com 1.10,2013-06-08 14:30:00,
2013-06-08 10:45:00,71.7,63.0,29.95,ESE,111,0.0,5.0,75,0.00,,,0.25,weatherlink.com 1.10,2013-06-08 14:45:00,
2013-06-08 11:00:00,72.8,62.0,29.95,SW,235,0.0,7.0,68,0.00,,,0.25,weatherlink.com 1.10,2013-06-08 15:00:00,
2013-06-08 11:15:00,73.2,62.0,29.95,ESE,103,0.0,7.0,69,0.00,,,0.25,weatherlink.com 1.10,2013-06-08 15:15:00,
2013-06-08 11:30:00,73.2,62.0,29.95,SW,235,0.0,6.0,68,0.00,,,0.25,weatherlink.com 1.10,2013-06-08 15:30:00,
2013-06-08 11:45:00,74.0,62.0,29.95,ESE,113,0.0,7.0,66,0.00,,,0.25,weatherlink.com 1.10,2013-06-08 15:45:00,
2013-06-08 12:00:00,74.6,61.0,29.95,East,95,6.0,9.0,62,0.00,,,0.25,weatherlink.com 1.10,2013-06-08 16:00:00,
2013-06-08 12:15:00,74.7,60.0,29.96,East,96,3.0,9.0,60,0.00,,,0.25,weatherlink.com 1.10,2013-06-08 16:15:00,
2013-06-08 12:30:00,74.1,61.0,29.96,ENE,67,0.0,5.0,63,0.00,,,0.25,weatherlink.com 1.10,2013-06-08 16:30:00,
2013-06-08 12:45:00,74.4,61.0,29.96,East,101,5.0,7.0,63,0.00,,,0.25,weatherlink.com 1.10,2013-06-08 16:45:00,
2013-06-08 13:00:00,73.7,62.0,29.97,East,88,5.0,9.0,67,0.00,,,0.25,weatherlink.com 1.10,2013-06-08 17:00:00,
2013-06-08 13:15:00,72.3,61.0,29.97,ENE,64,4.0,9.0,67,0.00,,,0.25,weatherlink.com 1.10,2013-06-08 17:15:00,
2013-06-08 13:30:00,72.0,62.0,29.97,SE,126,0.0,6.0,71,0.00,,,0.25,weatherlink.com 1.10,2013-06-08 17:30:00,
2013-06-08 13:45:00,72.6,61.0,29.97,ESE,103,0.0,9.0,68,0.00,,,0.25,weatherlink.com 1.10,2013-06-08 17:45:00,
2013-06-08 14:00:00,73.1,61.0,29.96,ESE,110,0.0,8.0,67,0.00,,,0.25,weatherlink.com 1.10,2013-06-08 18:00:00,
2013-06-08 14:15:00,74.6,62.0,29.96,East,88,1.0,8.0,65,0.00,,,0.25,weatherlink.com 1.10,2013-06-08 18:15:00,
2013-06-08 14:30:00,75.0,62.0,29.96,ESE,107,1.0,8.0,64,0.00,,,0.25,weatherlink.com 1.10,2013-06-08 18:30:00,
2013-06-08 14:45:00,75.2,62.0,29.96,East,92,0.0,8.0,63,0.00,,,0.25,weatherlink.com 1.10,2013-06-08 18:45:00,
2013-06-08 15:00:00,74.3,61.0,29.95,East,101,0.0,10.0,64,0.00,,,0.25,weatherlink.com 1.10,2013-06-08 19:00:00,
2013-06-08 15:15:00,73.2,61.0,29.95,East,91,0.0,8.0,66,0.00,,,0.25,weatherlink.com 1.10,2013-06-08 19:15:00,
2013-06-08 15:30:00,74.8,61.0,29.95,ESE,113,0.0,8.0,63,0.00,,,0.25,weatherlink.com 1.10,2013-06-08 19:30:00,
2013-06-08 15:45:00,74.2,62.0,29.96,ENE,78,3.0,7.0,65,0.00,,,0.25,weatherlink.com 1.10,2013-06-08 19:45:00,
2013-06-08 16:00:00,74.3,63.0,29.96,ENE,69,3.0,8.0,69,0.00,,,0.25,weatherlink.com 1.10,2013-06-08 20:00:00,
2013-06-08 16:15:00,75.1,61.0,29.96,East,98,1.0,8.0,62,0.00,,,0.25,weatherlink.com 1.10,2013-06-08 20:15:00,
2013-06-08 16:30:00,74.8,61.0,29.96,ESE,119,1.0,7.0,63,0.00,,,0.25,weatherlink.com 1.10,2013-06-08 20:30:00,
2013-06-08 16:45:00,74.6,61.0,29.96,East,97,1.0,5.0,63,0.00,,,0.25,weatherlink.com 1.10,2013-06-08 20:45:00,
2013-06-08 17:00:00,74.6,61.0,29.96,ENE,66,0.0,5.0,63,0.00,,,0.25,weatherlink.com 1.10,2013-06-08 21:00:00,
2013-06-08 17:15:00,74.2,61.0,29.97,ESE,107,2.0,7.0,64,0.00,,,0.25,weatherlink.com 1.10,2013-06-08 21:15:00,
2013-06-08 17:30:00,74.0,62.0,29.98,NE,55,1.0,4.0,66,0.00,,,0.25,weatherlink.com 1.10,2013-06-08 21:30:00,
2013-06-08 17:45:00,73.8,62.0,29.98,East,90,2.0,3.0,67,0.00,,,0.25,weatherlink.com 1.10,2013-06-08 21:45:00,
2013-06-08 18:00:00,75.2,60.0,29.98,East,80,1.0,4.0,60,0.00,,,0.25,weatherlink.com 1.10,2013-06-08 22:00:00,
2013-06-08 18:15:00,75.9,60.0,29.97,East,92,3.0,5.0,59,0.00,,,0.25,weatherlink.com 1.10,2013-06-08 22:15:00,
2013-06-08 18:30:00,75.9,61.0,29.97,ENE,61,1.0,3.0,60,0.00,,,0.25,weatherlink.com 1.10,2013-06-08 22:30:00,
2013-06-08 18:45:00,75.5,61.0,29.97,NE,54,3.0,5.0,60,0.00,,,0.25,weatherlink.com 1.10,2013-06-08 22:45:00,
2013-06-08 19:00:00,75.1,60.0,29.98,ENE,71,1.0,5.0,60,0.00,,,0.25,weatherlink.com 1.10,2013-06-08 23:00:00,
2013-06-08 19:17:00,74.9,60.0,29.98,East,87,0.0,2.0,61,0.00,,,0.25,weatherlink.com 1.10,2013-06-08 23:17:00,
2013-06-08 19:30:00,75.0,62.0,29.98,East,87,1.0,2.0,65,0.00,,,0.25,weatherlink.com 1.10,2013-06-08 23:30:00,
2013-06-08 19:45:00,74.8,63.0,29.99,East,82,0.0,2.0,66,0.00,,,0.25,weatherlink.com 1.10,2013-06-08 23:45:00,
2013-06-08 20:00:00,73.9,64.0,30.00,East,82,0.0,2.0,70,0.00,,,0.25,weatherlink.com 1.10,2013-06-09 00:00:00,
2013-06-08 20:15:00,72.4,63.0,30.00,East,82,0.0,1.0,72,0.00,,,0.25,weatherlink.com 1.10,2013-06-09 00:15:00,
2013-06-08 20:30:00,70.5,63.0,30.01,East,82,0.0,0.0,76,0.00,,,0.25,weatherlink.com 1.10,2013-06-09 00:30:00,
2013-06-08 20:45:00,69.5,62.0,30.02,East,82,0.0,1.0,77,0.00,,,0.25,weatherlink.com 1.10,2013-06-09 00:45:00,
2013-06-08 21:00:00,68.5,62.0,30.02,East,82,0.0,2.0,80,0.00,,,0.25,weatherlink.com 1.10,2013-06-09 01:00:00,
2013-06-08 21:15:00,67.6,62.0,30.02,East,82,0.0,0.0,81,0.00,,,0.25,weatherlink.com 1.10,2013-06-09 01:15:00,
2013-06-08 21:30:00,66.8,62.0,30.03,East,82,0.0,1.0,83,0.00,,,0.25,weatherlink.com 1.10,2013-06-09 01:30:00,
2013-06-08 21:46:00,66.4,62.0,30.04,East,82,0.0,0.0,85,0.00,,,0.25,weatherlink.com 1.10,2013-06-09 01:46:00,
2013-06-08 22:01:00,66.0,62.0,30.05,East,82,0.0,1.0,88,0.00,,,0.25,weatherlink.com 1.10,2013-06-09 02:01:00,
2013-06-08 22:16:00,65.7,62.0,30.05,East,82,0.0,0.0,89,0.00,,,0.25,weatherlink.com 1.10,2013-06-09 02:16:00,
2013-06-08 22:31:00,65.2,63.0,30.05,East,82,0.0,1.0,91,0.00,,,0.25,weatherlink.com 1.10,2013-06-09 02:31:00,
2013-06-08 22:46:00,65.0,63.0,30.05,East,82,0.0,2.0,92,0.00,,,0.25,weatherlink.com 1.10,2013-06-09 02:46:00,
2013-06-08 23:02:00,64.8,63.0,30.06,East,82,0.0,0.0,93,0.00,,,0.25,weatherlink.com 1.10,2013-06-09 03:02:00,
2013-06-08 23:16:00,64.8,63.0,30.06,East,82,0.0,1.0,93,0.00,,,0.25,weatherlink.com 1.10,2013-06-09 03:16:00,
2013-06-08 23:31:00,64.7,63.0,30.06,East,82,0.0,0.0,93,0.00,,,0.25,weatherlink.com 1.10,2013-06-09 03:31:00,
2013-06-08 23:46:00,64.5,63.0,30.06,East,82,0.0,0.0,93,0.00,,,0.25,weatherlink.com 1.10,2013-06-09 03:46:00,